Tracking 32523 objects as of 12-Dec-2025
HD Live streaming from Space Station
objects crossing your sky now

NOAA 16 DEB

Track NOAA 16 DEB now!
10-day predictions


NORAD ID: 41084
Int'l Code: 2000-055AT
Perigee: 810.6 km
Apogee: 833.4 km
Inclination: 98.7 °
Period: 101.2 minutes
Semi major axis: 7192 km
RCS: Unknown
Launch date: September 21, 2000
Source: United States (US)
Launch site: AIR FORCE WESTERN TEST RANGE (AFWTR)

Note: This is SATELLITE DEBRIS
Your satellite tracking list
Your tracking list is empty




NASA's NSSDC Master Catalog

Two Line Element Set (TLE):
1 41084U 00055AT  25346.18191509  .00002401  00000-0  10816-2 0  9996
2 41084  98.7032  69.9626 0015879  47.4006 312.8509 14.23114624519569
Source of the keplerian elements: AFSPC